Location: Unspecified
(48.5670°N, 0.0000°E)
Time: 20:16:14
(UTC+00:00)

Altair - Pass Details

Date: 28 August 2019
Orbit: 1501 x 1683 km, 47.2° (Epoch: 14 October)

Event Time Altitude Azimuth Distance (km) Brightness Sun altitude
Exits shadow 02:52:45 29° 239° (WSW) 2,665 8.2 -20.5°
Maximum altitude 02:58:31 72° 162° (SSE) 1,665 7.5 -19.8°
Drops below altitude 10° 03:07:58 10° 80° (E) 3,741 10.4 -18.6°
Sets 03:10:59 0° 79° (E) 4,704 11.1 -18.3°
